Probability
0 0 1 0 0 0 0 0 0 0 0 0 1 1 1 0 0 0 0 0 0 1 2 2 2 2 1 0 0 0 0 0 0 0 0 0 0 0 0 0 0 0 0
0 1 1 1 0 0 0 0 0 0 0 0 0 0 0 0 0 0 0 0 0 0 1 1 1 1 0 0 0 0 0 0 0 0 0 0 0 0 0 0 0 0 0
0 1 1 1 0 0 0 0 0 0 0 0 0 0 0 0 0 0 0 0 0 0 0 0 0 0 0 0 0 0 0 0 0 0 0 0 0 0 0 0 0 0 0
0 0 0 0 0 0 0 0 0 0 0 0 0 0 0 0 0 0 0 0 0 0 0 0 0 0 0 0 0 0 0 0 0 1 0 0 0 0 0 0 0 0 0
0 0 0 0 0 0 0 0 0 0 0 0 0 0 0 0 0 0 0 0 0 0 0 0 0 0 0 0 0 0 0 0 0 0 0 0 0 0 0 0 0 0 0
1 1 1 1 0 0 0 0 0 0 0 0 0 0 0 0 0 1 0 0 0 0 0 0 0 0 0 0 0 0 0 0 0 0 0 0 0 0 0 1 1 1 0
2 2 2 1 0 0 1 1 0 0 0 0 0 0 0 0 0 0 0 0 0 0 0 0 0 0 0 0 0 0 0 0 0 0 0 0 0 0 1 2 2 2 1
3 3 2 1 1 1 2 1 0 0 0 0 0 0 0 0 0 0 0 0 0 0 0 0 0 0 0 0 0 0 0 0 0 0 0 0 1 1 1 2 2 2 2
3 3 2 1 1 1 2 1 0 0 0 0 0 0 0 0 0 0 0 0 0 0 0 0 0 0 0 0 0 0 0 0 0 0 0 2 3 2 1 1 1 1 2
3 2 1 2 1 1 1 0 0 0 0 0 0 0 0 0 0 0 0 0 0 0 0 0 1 1 1 1 1 1 0 1 0 0 0 2 4 2 0 0 0 0 1
3 2 1 1 1 0 0 0 0 0 0 0 0 0 0 0 0 0 1 0 0 0 0 1 2 2 2 2 2 1 0 0 0 0 0 2 2 2 0 0 0 1 1
3 3 2 2 1 1 0 0 0 0 0 0 0 0 0 0 0 0 0 0 0 0 0 1 3 3 2 1 1 1 0 0 0 0 1 2 2 1 0 0 1 1 2
4 4 3 3 2 2 1 0 0 0 0 0 0 0 0 0 0 0 0 0 0 0 1 1 2 3 2 2 2 1 0 0 0 0 2 4 4 3 2 2 2 2 2
6 5 4 3 3 3 1 0 0 0 0 0 0 0 0 0 0 0 0 0 0 0 0 1 2 3 3 2 2 1 0 0 0 1 3 5 5 5 4 4 3 3 2
7 6 3 2 3 3 2 1 0 0 0 0 0 0 0 0 0 0 0 0 0 0 1 1 1 2 2 1 1 0 0 0 0 1 3 5 5 4 5 4 3 2 2
5 5 3 2 2 2 2 1 0 0 0 0 0 0 0 0 0 0 0 0 0 0 1 1 1 1 1 0 0 0 0 0 0 1 3 5 4 4 3 3 2 1 1
5 4 4 3 2 2 1 0 0 0 0 0 0 0 0 0 0 0 0 0 0 0 1 1 0 0 0 0 0 0 0 0 0 1 3 4 4 3 3 2 2 1 0
6 6 5 4 3 2 1 0 0 0 0 0 0 0 0 0 0 0 0 0 0 0 0 0 0 0 0 0 0 0 0 0 0 0 1 2 3 3 2 3 3 1 1
6 7 7 5 3 3 2 1 0 0 0 0 0 0 0 0 0 0 0 0 0 0 0 0 0 0 0 0 0 0 0 0 0 0 0 0 1 2 3 3 3 3 2
6 8 8 6 4 3 2 1 0 0 0 0 0 0 0 0 0 0 0 0 0 0 0 0 0 0 0 0 0 0 0 0 0 0 0 0 1 2 2 2 3 3 3
7 8 9 8 6 4 2 1 1 0 0 0 0 0 0 0 0 0 0 0 0 0 0 0 0 0 0 0 0 0 0 0 0 0 0 0 0 1 1 2 3 4 3
8 9 10 10 8 5 3 1 0 0 0 0 0 0 0 0 0 0 0 0 0 0 0 0 0 0 0 0 0 0 0 0 0 0 0 0 1 1 2 4 5 4 3
9 10 11 11 9 7 5 2 0 0 0 0 0 0 0 0 0 0 0 0 0 0 0 0 0 0 0 0 0 0 0 0 0 0 0 1 2 3 3 4 4 4 4
9 11 11 11 10 8 6 3 1 1 0 0 0 0 0 0 0 0 0 0 0 0 0 0 0 0 0 0 0 0 0 0 0 0 0 1 2 3 3 2 1 2 3
8 9 10 10 10 9 7 4 2 1 0 0 0 0 0 0 0 0 0 0 0 0 0 0 0 0 0 0 0 0 0 0 0 0 0 1 1 1 1 1 0 1 2
7 8 9 10 11 10 7 5 3 1 0 0 0 0 0 0 0 0 0 0 0 0 0 0 0 0 0 0 0 0 0 0 0 0 0 0 0 0 1 0 0 0 1
Wind_Speed
7 9 10 10 10 10 11 10 10 10 10 9 9 9 9 9 9 10 9 9 10 10 10 10 10 10 10 10 10 9 9 8 8 8 8 8 9 8 7 7 6 5 8
10 10 10 10 10 10 11 11 11 11 10 10 9 9 9 9 8 9 9 9 9 10 10 10 9 9 9 9 9 9 8 7 6 6 7 7 8 8 8 7 7 5 8
10 10 10 10 10 10 10 10 11 10 10 10 10 10 9 9 8 8 9 9 9 9 9 9 9 9 9 9 9 8 7 6 5 4 4 4 6 8 8 8 8 8 8
10 9 10 10 10 10 10 10 10 10 10 10 10 10 9 9 8 8 8 8 8 9 9 9 9 9 8 8 8 7 6 5 5 4 3 4 5 8 8 7 8 8 8
10 11 10 10 10 10 10 10 10 10 10 9 9 9 9 9 8 8 9 8 8 9 9 8 8 8 8 8 7 6 5 5 5 4 4 5 5 7 8 8 7 7 7
10 11 10 10 10 10 10 10 10 10 10 10 9 9 9 9 9 9 9 8 8 8 8 8 8 8 8 7 7 6 5 5 4 3 4 5 5 7 8 8 7 7 7
9 10 9 10 10 10 10 10 9 10 10 9 9 9 9 9 9 9 9 9 8 8 8 8 8 7 7 7 6 6 6 6 3 3 4 5 6 9 9 8 7 7 7
8 9 9 10 10 9 9 9 9 9 9 9 8 8 8 8 8 9 9 8 8 8 7 7 7 6 6 6 5 5 6 6 5 5 5 5 8 10 9 9 8 7 7
7 7 7 7 8 9 9 8 8 8 8 8 7 7 7 7 8 8 8 8 8 8 7 6 6 6 5 4 4 4 4 5 3 3 6 4 8 9 9 8 8 8 7
5 5 5 6 7 7 6 7 8 7 6 6 5 5 5 6 7 8 8 7 7 6 6 5 5 4 4 3 3 3 3 4 3 5 3 5 10 10 9 8 8 8 8
4 4 4 5 4 5 5 7 6 6 5 5 4 4 3 2 3 4 6 6 6 5 4 4 3 3 2 1 1 1 2 1 4 4 4 9 10 10 9 8 7 7 8
4 4 3 4 4 4 4 4 2 3 3 2 2 2 2 2 3 4 5 6 5 4 3 2 2 2 1 1 1 1 1 3 4 4 5 10 10 9 8 8 8 8 8
4 4 4 3 4 4 2 2 1 1 1 1 2 3 2 2 3 2 2 2 2 3 1 1 1 1 1 2 2 2 3 3 3 3 5 10 9 9 8 8 8 8 9
4 4 4 3 4 4 3 2 2 1 1 2 2 3 2 2 2 2 1 1 1 1 1 1 1 2 3 3 3 3 4 3 3 3 4 9 9 9 8 8 8 8 9
4 4 3 3 4 3 3 1 2 2 2 2 1 2 3 2 2 2 2 2 1 1 1 1 2 4 4 4 4 4 4 4 4 4 4 8 8 8 8 8 8 8 8
4 4 3 3 3 3 3 2 2 2 2 2 2 2 3 2 2 2 3 2 2 2 1 2 3 3 3 3 4 4 4 4 4 4 4 5 7 8 8 8 8 8 8
4 5 4 2 3 3 3 2 2 2 2 2 2 2 3 3 3 3 2 2 2 2 3 3 3 3 3 3 3 3 3 3 3 3 3 3 4 6 8 8 8 8 8
5 5 4 3 3 3 2 2 2 2 2 2 2 2 3 3 4 3 2 2 2 2 2 2 3 3 3 2 2 2 2 2 3 3 2 3 3 3 5 8 8 8 8
5 5 4 3 2 2 2 2 2 2 2 2 2 2 2 3 3 3 2 2 3 3 3 3 3 2 2 2 1 2 2 2 2 2 3 2 3 4 3 5 8 8 8
5 4 4 4 3 2 2 2 2 2 2 2 2 2 2 2 3 3 1 2 3 2 2 2 3 3 2 1 2 2 1 1 1 2 2 2 2 3 3 4 3 4 6
5 5 4 4 3 3 2 1 1 1 1 1 1 2 2 2 3 3 2 2 2 2 1 2 2 2 1 1 2 2 2 2 2 1 1 2 2 2 2 3 3 3 3
4 4 4 3 3 3 2 2 1 2 1 1 1 2 2 2 2 2 2 2 2 2 2 2 2 1 1 1 1 1 1 2 2 1 1 1 1 2 2 3 3 3 3
3 3 4 4 4 3 3 2 2 2 1 1 1 1 1 2 3 2 2 2 2 1 1 1 1 2 0 1 1 1 1 1 1 1 1 2 2 2 1 2 3 3 4
4 3 3 3 4 3 4 3 2 2 1 1 1 1 1 1 2 2 2 2 2 2 1 1 1 1 1 0 1 2 1 1 1 0 1 1 2 2 2 2 2 2 3
3 3 3 3 3 3 3 3 3 2 2 1 1 1 1 1 1 2 2 1 2 2 1 1 1 1 1 1 1 1 1 2 1 2 0 0 1 1 1 1 1 1 2
3 3 3 3 3 3 3 4 4 3 2 2 2 1 1 1 1 2 1 1 1 1 1 1 1 1 0 1 0 0 1 1 0 1 1 1 0 0 1 1 1 1 1
Wind_Direction
92 91 77 71 67 65 65 66 68 72 72 75 75 75 77 76 75 73 71 69 70 71 72 71 68 68 67 66 65 67 70 73 80 86 88 89 87 85 83 82 86 91 96
99 95 81 74 71 68 68 67 69 71 71 73 74 76 79 78 76 76 75 71 69 70 71 72 70 72 70 67 65 66 68 69 74 86 93 92 90 88 83 81 79 89 96
99 100 89 76 74 71 71 71 73 73 72 73 73 76 79 78 76 77 77 74 73 75 75 72 70 72 70 68 67 66 64 61 60 71 90 96 89 83 81 83 85 91 94
101 98 88 82 76 73 72 72 73 73 72 72 74 77 80 79 77 78 79 79 78 78 76 74 70 71 69 68 66 62 58 48 42 40 79 84 86 85 84 84 90 91 93
96 95 93 88 81 76 75 75 74 74 74 74 75 77 77 77 78 79 80 81 82 80 77 75 74 73 71 69 63 55 48 37 22 43 75 83 83 85 84 84 84 87 89
100 101 102 95 88 83 79 78 77 75 75 75 75 75 74 75 78 81 82 80 81 81 79 76 76 74 72 67 59 46 34 25 7 59 76 86 88 87 86 85 84 86 87
106 108 110 105 98 91 85 81 80 79 77 76 76 75 74 75 79 83 82 78 77 78 78 77 74 75 73 67 56 41 29 20 30 69 77 84 87 88 88 86 84 82 81
108 110 115 116 109 101 95 88 86 84 81 80 81 80 79 78 83 86 83 81 77 77 79 79 77 79 75 67 56 43 31 23 42 64 75 82 91 91 89 86 83 80 81
103 115 125 131 122 113 106 101 98 93 90 90 91 92 92 92 93 94 88 84 82 81 83 85 87 87 83 72 58 44 32 23 26 52 72 80 90 90 89 88 85 80 80
108 112 125 137 135 131 124 117 116 111 107 111 111 109 114 108 100 101 98 92 92 93 93 96 99 100 96 87 69 42 14 11 48 61 62 82 87 87 86 85 85 84 84
102 108 113 114 118 125 130 128 137 134 137 141 142 142 134 117 109 111 108 113 111 111 113 114 121 121 122 118 93 50 19 43 74 68 59 77 81 82 82 81 83 85 88
118 107 98 102 105 107 109 123 146 144 156 169 136 141 152 113 93 100 116 129 137 137 137 143 151 152 179 171 139 104 58 66 76 76 73 78 77 77 79 78 81 84 87
113 100 92 90 94 94 93 105 88 75 109 119 103 96 80 87 104 108 126 138 150 153 155 129 173 181 112 86 91 85 70 65 72 72 74 79 78 79 80 82 83 85 87
107 103 96 90 92 88 85 90 100 92 67 53 46 82 74 59 71 86 90 102 123 121 99 113 91 67 62 65 70 72 73 79 85 82 78 79 78 79 79 81 84 87 89
121 115 108 91 88 90 89 93 94 87 80 79 42 76 73 63 63 68 70 52 56 69 75 57 64 57 50 46 47 55 68 72 87 92 84 81 82 78 80 83 86 86 90
136 123 97 97 96 95 91 77 86 88 91 76 55 65 84 76 65 59 70 57 51 43 47 67 74 73 57 50 46 46 47 57 72 92 105 92 85 85 83 85 86 87 89
134 124 115 108 90 85 84 73 78 71 73 67 63 56 69 73 70 57 59 49 42 40 46 51 57 60 67 55 47 54 47 49 60 77 100 116 107 91 90 87 86 89 89
129 113 111 113 98 95 92 80 82 81 77 76 65 55 57 65 67 54 55 47 44 43 45 51 59 58 56 49 39 43 50 48 48 53 66 97 115 113 102 97 91 90 87
132 128 128 111 105 97 98 92 87 84 85 79 63 55 55 62 77 69 50 48 50 45 42 48 47 60 59 55 52 60 57 52 46 55 52 66 96 108 119 117 104 95 88
127 135 133 126 123 109 94 91 81 72 73 88 82 70 61 54 68 75 65 61 62 58 43 58 51 41 51 58 55 53 60 73 50 52 44 46 61 92 105 119 121 106 97
148 139 131 134 131 120 101 90 90 85 70 70 83 88 82 71 74 69 60 60 60 66 64 76 79 63 47 55 68 40 14 55 80 72 47 56 57 68 95 124 130 122 113
147 141 143 135 129 125 123 125 123 110 98 83 58 50 48 67 79 84 87 83 70 56 54 78 81 69 15 17 59 80 46 11 7 46 69 63 57 64 55 69 99 109 114
147 153 151 149 146 140 131 117 95 84 80 78 73 47 23 57 77 67 66 85 100 98 72 71 89 90 59 352 38 80 110 167 314 357 54 71 54 59 54 48 68 88 103
151 147 150 158 148 139 133 131 137 136 135 130 130 142 89 69 79 82 74 68 82 84 78 35 75 88 97 15 0 17 52 122 138 47 346 35 57 64 58 54 59 66 90
141 151 170 168 147 144 148 148 155 147 139 127 117 120 108 90 95 93 88 86 81 83 85 54 56 62 87 88 52 3 13 4 21 122 200 323 14 33 75 76 73 71 87
132 161 170 169 154 145 158 162 163 154 153 139 127 123 133 129 105 102 98 95 93 98 88 74 77 53 60 90 62 34 72 49 16 83 151 199 168 294 79 91 88 85 95